Preview of NWS' New Version of Forecast
This preview is not operational and should not be used for support decisions.

Regional Weather Roundup (RWR)

Issued by National Weather Service (NWS)

                            
000
ASUS45 KABQ 241710
RWRNM 
NEW MEXICO REGIONAL WEATHER ROUNDUP
NATIONAL WEATHER SERVICE ALBUQUERQUE NM
1100 AM MDT SAT AUG 24 2019

NOTE: "FAIR" MEANS FEW OR NO CLOUDS BELOW 12,000 FEET AGL WITH NO
       SIGNIFICANT WEATHER OR OBSTRUCTIONS TO VISION.

      THIS PRODUCT IS RELEASED AS TWO VERSIONS.  ONE VERSION NEAR
      THE TOP OF THE HOUR CONTAINING PRELIMINARY DATA FROM ALBUQUERQUE
      AND OTHER STATIONS.  A FINAL VERSION WITH ADDITIONAL DATA IS 
      ISSUED ABOUT 10 MINUTES AFTER THE HOUR.
 
NMZ501-503-504-510>518-241800-
NORTHWEST PLATEAU/NORTHCENTRAL MOUNTAINS
  
CITY           SKY/WX    TMP DP  RH WIND       PRES   REMARKS
FARMINGTON     FAIR      80  29  15 MISG      30.16F                  
LOS ALAMOS       N/A     73  45  36 SE3       30.28S                  
SANTA FE       FAIR      78  44  29 W8        30.22F                  
TAOS           FAIR      73  44  35 S10       30.28F                  
ANGEL FIRE     FAIR      70  38  31 W12       30.33F                  

$$
NMZ402-403-502-505>509-241800-
WESTCENTRAL MOUNTAINS/SOUTHWEST MOUNTAINS
  
CITY           SKY/WX    TMP DP  RH WIND       PRES   REMARKS
GALLUP         FAIR      80  37  21 SW9       30.27F                  
GRANTS         FAIR      78  37  23 CALM      30.28F                  
SILVER CITY    FAIR      81  53  37 W6        30.19S                  

$$
NMZ407-409-411-412-241800-
SOUTHERN DESERTS
  
CITY           SKY/WX    TMP DP  RH WIND       PRES   REMARKS
DEMING         FAIR      80  56  43 SW9       30.14S                  
LAS CRUCES     FAIR      82  56  40 S5        30.15F                  
HOLLOMAN AFB   FAIR      83  56  39 CALM      30.12F                  
ALAMOGORDO     FAIR      82  54  36 SE3       30.12S                  
T OR C         FAIR      84  52  33 MISG      30.14S                  

$$
NMZ519>523-241800-
CENTRAL VALLEYS/CENTRAL HIGHLANDS
  
CITY           SKY/WX    TMP DP  RH WIND       PRES   REMARKS
ALBUQUERQUE    FAIR      78  44  29 SW6       30.18S                  
DOUBLE EAGLE   MOSUNNY   79  45  29 VRB3      30.21S                  
MORIARTY ARPT  FAIR      81  46  29 W5        30.23S                  
CLINES CORNERS FAIR      79  38  22 NW17G25   30.28R                  
BELEN          FAIR      83  37  19 CALM      30.16F                  
SOCORRO        FAIR      82  48  30 S7        30.14S                  

$$
NMZ524>526-539-540-241800-
SOUTHCENTRAL MOUNTAINS
  
CITY           SKY/WX    TMP DP  RH WIND       PRES   REMARKS
RUIDOSO        FAIR      77  46  33 NW9       30.29S                  

$$
NMZ527>531-241800-
NORTHEAST HIGHLANDS/NORTHEAST PLAINS
  
CITY           SKY/WX    TMP DP  RH WIND       PRES   REMARKS
LAS VEGAS      FAIR      79  49  34 SW7       30.22                   
RATON          FAIR      72  52  49 VRB3      30.16F                  
CLAYTON        FAIR      76  59  55 SW20G29   30.07F                  

$$
NMZ532>537-241800-
EASTCENTRAL PLAINS
  
CITY           SKY/WX    TMP DP  RH WIND       PRES   REMARKS
SANTA ROSA     FAIR      80  62  55 S8G16     30.11F                  
TUCUMCARI      FAIR      80  61  52 SW10      30.04F                  
CANNON AFB     FAIR      77  63  63 SW13      30.11S                  
CLOVIS AIRPORT FAIR      78  64  61 SW10      30.10F                  

$$
NMZ028-029-538-241800-
SOUTHEAST PLAINS
  
CITY           SKY/WX    TMP DP  RH WIND       PRES   REMARKS
ROSWELL        FAIR      87  59  38 SW8       30.05F                  
ARTESIA        FAIR      84  61  45 S9G16     30.06F                  
CARLSBAD       FAIR      82  61  48 SE7       30.03F                  
HOBBS          SUNNY     86  63  45 S8        30.06F                  


$$